Location: Ellingshausen
(50.5460°N, 10.4723°E)
Time: 01:34:26
(UTC+00:00)

Daily predictions for brighter satellites

Satellite Brightness Start Highest point End
(mag) Time Altitude Azimuth Time Altitude Azimuth Time Altitude Azimuth
ATLAS 2AS CENTAUR R/B 3.5 03:16:43 44° NNE 03:16:43 44° NNE 03:23:03 10° ESE
Cosmos 2344 4.5 03:29:56 32° N 03:30:05 32° N 03:37:08 10° ENE
Lacrosse 5 rocket 4.0 03:47:59 14° NE 03:47:59 14° NE 03:48:39 10° ENE
BREEZE-M DEB (TANK) 4.3 03:54:08 56° SW 03:54:17 57° SW 03:59:09 10° SE
Cosmos 44 3.6 04:08:32 71° NE 04:08:35 71° NE 04:13:58 10° SE
Cosmos 2082 Rocket 2.7 04:12:12 38° N 04:14:11 58° NE 04:19:48 10° SE
CZ-4C R/B 3.8 04:15:28 24° NNW 04:17:22 28° NNE 04:23:33 10° ENE
Meteor 2-10 Rocket 4.3 04:13:13 10° S 04:18:11 52° E 04:23:23 10° NNE
COSMOS 2406 4.4 04:15:50 21° N 04:19:09 39° NE 04:24:30 10° ESE
Timation 1 Rocket 4.2 04:19:01 73° W 04:19:20 75° WSW 04:25:18 10° SSE
Cosmos 2278 Rocket 2.9 04:14:32 12° S 04:19:41 53° ESE 04:25:11 10° NE
BREEZE-M DEB (TANK) 4.5 04:23:13 45° WSW 04:26:15 85° S 05:00:13 10° E
COSMO-SKYMED 1 2.8 04:23:31 10° SSE 04:27:34 61° ENE 04:28:08 55° NNE
Cosmos 1943 Rocket 2.3 04:25:36 21° SSW 04:29:14 69° ESE 04:34:43 10° NNE
USA 307 3.2 04:32:58 57° ESE 04:32:58 57° ESE 04:36:12 10° ESE
Cosmos 1763 Rocket 4.3 04:30:51 21° N 04:33:58 47° ENE 04:38:52 10° SE
Cosmos 1140 Rocket 4.2 04:31:19 10° S 04:36:15 53° ESE 04:41:15 10° NNE
Gbstr 26 Del rocket 4.5 04:33:15 30° SW 04:37:01 64° SSE 04:43:30 10° ENE
Cosmos 540 Rocket 4.2 04:40:31 17° N 04:44:13 50° ENE 04:49:09 10° SE
TIMED 4.3 04:44:26 75° NW 04:44:26 75° NW 04:48:34 10° NNE
Timation 2 Rocket 4.1 04:45:26 10° SSW 04:52:01 83° ESE 04:58:20 10° NNE
Cosmos 1743 Rocket 3.6 04:49:37 10° S 04:54:01 78° E 04:58:27 10° NNE
Cosmos 2181 Rocket 4.2 04:48:40 10° NNW 04:54:44 48° W 05:00:51 10° SSW
Okean 1-7 3.9 04:51:52 10° N 04:55:54 47° ENE 04:59:55 10° SSE
CZ-4 R/B 3.7 04:52:43 10° NNE 04:57:33 86° WNW 05:02:26 10° SSW
Cosmos 2184 Rocket 3.8 04:54:56 10° SSW 05:01:06 74° WNW 05:07:18 10° N
GEOS 3 Rocket 3.6 04:56:06 10° SE 05:01:21 89° SW 05:04:15 28° NW
SOZ 4.3 05:01:54 65° NNE 05:01:54 65° NNE 05:05:25 10° E
Lacrosse 4 Rocket 2.3 04:58:49 10° S 05:02:35 45° ESE 05:06:20 10° NE
FengYun 1-2 T 4.4 04:57:45 10° N 05:03:04 46° WNW 05:06:39 20° SW
NOSS 8 (E) 4.5 05:05:42 52° SSW 05:05:42 52° SSW 05:08:39 10° SSE
Gblst 52 Del rocket 4.4 05:04:20 36° W 05:06:13 52° SSW 05:11:35 10° SE
NOAA 12 4.0 05:02:28 10° N 05:07:38 62° WNW 05:12:46 10° SSW
ATLAS 2AS CENTAUR R/B 2.6 05:04:09 28° NW 05:07:51 64° SW 05:14:31 10° SSE
Cosmos 1484 Rocket 3.3 05:05:01 10° NNE 05:08:20 50° E 05:11:40 10° S
CZ-2C R/B 4.5 05:08:09 10° NNW 05:08:21 11° NNW 05:08:21 11° NNW
Cosmos 2228 Rocket 3.6 05:07:31 10° N 05:11:52 60° ENE 05:16:11 10° SSE
SJ 16-02 3.8 05:09:13 10° SSE 05:12:38 24° E 05:16:04 10° NE
Cosmos 1805 Rocket 3.8 05:13:00 10° SW 05:17:13 43° WNW 05:21:27 10° N
RUBIN 8/PSLV 4.3 05:14:44 10° NNE 05:18:57 79° WNW 05:23:09 10° SSW
Cosmos 407 Rocket 3.9 05:16:44 10° S 05:21:48 65° ESE 05:26:59 10° NNE
BREEZE-M DEB (TANK) 2.6 05:22:01 48° SW 05:22:11 49° SSW 05:24:29 10° ESE
Cosmos 921 Rocket 3.4 05:21:33 32° W 05:22:37 37° WNW 05:26:34 10° N
Lacrosse 5 rocket 2.1 05:21:30 26° NNW 05:22:50 35° NNE 05:26:21 10° E
SMAP 4.3 05:18:29 10° NNE 05:22:59 45° E 05:27:26 10° S
IRS-1D 3.8 05:18:05 10° N 05:23:11 48° WNW 05:28:17 10° SW
Cosmos 2074 Rocket 4.1 05:17:14 10° SSW 05:23:20 51° WNW 05:29:29 10° N
Cosmos 1500 Rocket 4.0 05:20:47 10° SW 05:24:50 37° WNW 05:28:57 10° N
CENTAUR R/B 3.4 05:22:54 10° SSW 05:28:13 50° ESE 05:34:54 10° NE
Cosmos 1408 Rocket 4.2 05:28:02 26° W 05:29:11 30° WNW 05:33:00 10° N
Helios 1A Rocket 2.6 05:27:01 10° S 05:30:15 47° W 05:31:44 27° NW
Cosmos 1610 Rocket 4.4 05:25:22 10° SSW 05:31:28 69° WNW 05:37:38 10° N
SeaSat 1 3.8 05:29:18 10° NE 05:33:57 41° ESE 05:38:34 10° S
MOS 1 Rocket 4.1 05:29:40 10° NNE 05:34:04 49° E 05:38:15 10° S
Cosmos 1758 3.5 05:30:44 10° SW 05:34:13 39° WNW 05:37:43 10° N
ATLAS CENTAUR R/B 3.0 05:36:43 11° SW 05:36:43 11° SW 05:37:02 10° SW
Nadezhda 3 Rocket 4.3 05:30:58 10° NNW 05:36:48 43° W 05:42:40 10° SSW
Cosmos 468 Rocket 4.0 05:33:42 10° NNW 05:38:52 83° ENE 05:44:01 10° SSE
Cosmos 1703 Rocket 4.4 05:36:06 10° N 05:40:19 52° ENE 05:44:32 10° SSE
SL-12 R/B(2) 4.4 05:36:15 10° SW 05:44:25 81° NW 05:54:35 10° NE
Thor Agena Rocket 4.1 05:40:36 10° NNE 05:45:40 61° ESE 05:50:47 10° S
Cosmos 2344 4.4 05:39:56 12° NW 05:46:35 46° NNE 05:55:32 10° E
IGS 5A 3.6 05:48:24 10° N 05:52:13 46° WNW 05:56:01 10° SW
Cosmos 2084 Rocket 3.8 05:50:18 18° WNW 05:53:05 46° SW 05:57:07 10° SSE
CZ-2D R/B 3.5 05:51:23 10° NNE 05:54:27 54° E 05:57:29 10° S
Meteor 1-24 Rocket 3.8 05:49:42 10° NNW 05:55:44 75° W 06:01:43 10° S
Meteor 2-5 Rocket 3.8 05:51:08 10° NNW 05:57:01 80° W 06:02:56 10° S
Cosmos 1470 Rocket 3.5 05:52:45 10° S 05:57:03 87° E 06:01:22 10° N
SJ-12 4.5 05:53:21 10° NNE 05:57:08 57° E 06:00:52 10° S
Cosmos 2082 Rocket 3.1 05:54:03 14° NW 05:57:55 29° WSW 06:02:42 10° SSW
SL-23 DEB 3.3 05:57:05 16° W 05:59:31 82° N 06:03:04 10° E
USA 307 4.0 05:57:41 15° W 06:00:04 26° SW 06:03:18 10° SSE
Meteor 2-10 Rocket 4.4 05:56:13 10° WSW 06:00:33 26° WNW 06:05:03 10° N
Cosmos 2366 rocket 4.0 05:55:49 10° S 06:02:02 85° W 06:08:21 10° N
Cosmos 1328 3.8 05:59:41 10° NNW 06:03:08 44° W 06:06:33 10° SSW
COSMO-SKYMED 1 4.0 06:00:45 10° SW 06:03:16 16° W 06:04:27 14° WNW
COSMOS 2406 3.6 05:58:06 10° NW 06:03:34 47° WSW 06:09:01 10° S
Cosmos 2278 Rocket 2.8 05:58:53 10° WSW 06:04:00 34° NW 06:09:10 10° NNE
Cosmos 1862 Rocket 4.3 06:01:14 10° NNW 06:05:04 31° W 06:08:50 10° SSW
Cosmos 1656 Rocket 3.7 06:01:15 10° SSW 06:06:56 85° WNW 06:12:37 10° NNE
CZ-4C R/B 3.4 06:00:33 10° NW 06:06:56 55° NE 06:15:01 10° ESE
Cosmos 1461 2.7 06:04:57 10° SW 06:08:50 88° ESE 06:12:45 10° NE
Cosmos 2218 Rocket 4.0 06:03:46 10° SSW 06:10:05 81° W 06:16:31 10° N
Cosmos 1943 Rocket 3.0 06:08:46 10° WSW 06:13:27 28° NW 06:18:10 10° NNE
Cosmos 1763 Rocket 4.4 06:11:10 10° NW 06:15:26 28° W 06:19:43 10° SSW
YAOGAN 1 4.3 06:11:38 10° NNE 06:15:36 36° E 06:19:33 10° SSE
Cosmos 1140 Rocket 4.3 06:13:50 10° WSW 06:18:14 28° NW 06:22:42 10° N
Cosmos 1190 Rocket 4.0 06:13:18 10° SSW 06:18:30 88° ESE 06:23:43 10° NNE
Cosmos 2297 Rocket 4.2 06:16:15 10° N 06:20:20 20° NE 06:24:24 10° E
Meteor 1-16 Rocket 4.4 06:15:14 10° S 06:20:40 76° E 06:26:01 10° NNE
Cosmos 841 Rocket 3.5 06:16:00 10° NNW 06:21:12 87° WSW 06:26:20 10° SSE
Gbstr 26 Del rocket 4.1 06:16:33 10° W 06:23:51 82° N 06:29:53 10° E
Cosmos 540 Rocket 4.4 06:21:11 10° NW 06:25:26 27° W 06:29:39 10° SSW
NOSS 2-2 (C) 2.6 06:22:17 10° SW 06:25:32 88° NW 06:28:31 10° NE
Cosmos 1959 Rocket 4.5 06:20:58 10° SSW 06:27:03 66° WNW 06:33:10 10° N
Cosmos 1727 Rocket 4.0 06:21:52 10° N 06:28:07 87° WSW 06:34:17 10° S
Cosmos 1633 Rocket 3.7 06:24:39 10° SW 06:28:32 32° WNW 06:32:28 10° N
CORIOLIS 4.3 06:23:34 10° N 06:28:54 56° WNW 06:34:10 10° SW
Cosmos 1833 4.4 06:23:24 10° NNW 06:29:15 82° ENE 06:35:01 10° SSE
Cosmos 2341 Rocket 4.2 06:23:29 10° SSW 06:29:42 53° WNW 06:35:58 10° N
AQUARIUS 4.1 06:27:04 10° N 06:31:29 72° WNW 06:35:52 10° SSW
Cosmos 1869 Rocket 4.1 06:27:26 10° S 06:31:50 66° E 06:36:15 10° NNE
Okean 1-7 4.3 06:29:37 10° NW 06:32:34 19° W 06:35:31 10° SW
GP-B 4.1 06:28:28 10° N 06:32:45 50° E 06:37:00 10° SSE
Cosmos 676 Rocket 4.3 06:28:08 10° SSW 06:33:16 75° ESE 06:38:27 10° NNE
USA 234 4.2 06:29:55 10° ENE 06:36:22 55° SE 06:42:45 10° SW
Meteor 2-15 4.5 06:30:17 10° SSW 06:36:26 82° W 06:42:38 10° N
